Hourly Data Report for October 02, 2012

All times are specified in Local Standard Time (LST). Add 1 hour to adjust for Daylight Saving Time where and when it is observed.

IQALUIT CLIMATE
NUNAVUT

63°44'50.000" N
68°32'40.000" W
33.50 m
2402592
71321
XFB

Download Data

Hourly Data (October 2012)
Hourly Data Report for October 2, 2012
Temp Definition
°C
Dew Point Temp Definition
°C
Rel Hum Definition
%
Wind Dir Definition
10's deg

Wind Spd Definition
km/h
Visibility Definition
km
Stn Press Definition
kPa
Hmdx Definition


Wind Chill Definition


Weather Definition


TIME
00:00 3.2 2.9 98 15 30   99.87     LegendNANA
01:00 3.7 3.1 96 15 26   99.82     LegendNANA
02:00 3.5 3.1 97 16 17   99.80     LegendNANA
03:00 4.0 3.1 94 16 22   99.75     LegendNANA
04:00 2.8 2.4 97 14 17   99.68     LegendNANA
05:00 2.2 1.9 98 15 17   99.64     LegendNANA
06:00 2.7 2.1 96 16 20   99.61     LegendNANA
07:00 4.0 3.1 94 15 22   99.60     LegendNANA
08:00 2.8 2.3 97 15 24   99.64     LegendNANA
09:00 2.9 2.3 96 15 24   99.66     LegendNANA
10:00 3.0 2.4 96 13 11   99.69     LegendNANA
11:00 2.5 2.0 96 14 15   99.73     LegendNANA
12:00 3.7 3.0 95 14 15   99.69     LegendNANA
13:00 2.6 1.9 95 21 7   99.77     LegendNANA
14:00 2.8 2.3 97 17 6   99.79     LegendNANA
15:00 3.7 2.9 94 29 4   99.81     LegendNANA
16:00 4.2 3.4 95 33 9   99.86     LegendNANA
17:00 4.0 2.0 87 32 9   99.95     LegendNANA
18:00 3.5 1.7 88 32 13   100.00     LegendNANA
19:00 3.0 1.7 91 32 9   100.05     LegendNANA
20:00 3.2 1.6 89 32 17   100.10     LegendNANA
21:00 2.4 1.7 95 33 11   100.15     LegendNANA
22:00 2.2 1.0 92 32 11   100.17     LegendNANA
23:00 2.0 0.8 92 31 11   100.22     LegendNANA

Notes on Data Quality.

Legend

  • E = Estimated
  • M = Missing
  • NA = Not Available
  • ‡ = Partner data that is not subject to review by the National Climate Archives
Date modified: